Location: Bartshausen
(51.8454°N, 9.8167°E)
Time: 04:22:10
(UTC+00:00)

Resurs 1-4 Rocket - Visible Passes

Search period start: 19 February 2026 00:00
Search period end: 01 March 2026 00:00
Orbit: 797 x 813 km, 98.8° (Epoch: 18 February)

Date Brightness Start Highest point End Pass type
(mag) Time Alt. Az. Time Alt. Az. Time Alt. Az.
19 Feb 4.3 02:08:33 10° NNE 02:10:09 20° NNE 02:10:09 20° NNE visible
19 Feb 3.9 03:49:09 10° N 03:51:11 18° NNW 03:51:11 18° NNW visible
20 Feb 4.5 01:43:27 10° NNE 01:44:46 18° NNE 01:44:46 18° NNE visible
20 Feb 3.7 03:23:34 10° N 03:25:49 22° NNW 03:25:49 22° NNW visible
21 Feb 4.8 01:18:31 10° NNE 01:19:23 14° NE 01:19:23 14° NE visible
21 Feb 3.7 02:58:07 10° N 03:00:26 25° N 03:00:26 25° N visible
21 Feb 4.2 04:40:32 10° NNW 04:41:28 11° NW 04:41:28 11° NW visible
22 Feb 5.0 00:53:50 10° NE 00:54:00 11° NE 00:54:00 11° NE visible
22 Feb 3.8 02:32:48 10° NNE 02:35:03 26° N 02:35:03 26° N visible
22 Feb 3.9 04:13:58 10° NNW 04:16:06 15° NW 04:16:06 15° NW visible
23 Feb 4.0 02:07:35 10° NNE 02:09:41 25° NNE 02:09:41 25° NNE visible
23 Feb 3.7 03:48:10 10° N 03:50:43 20° NNW 03:50:43 20° NNW visible
24 Feb 4.3 01:42:30 10° NNE 01:44:17 21° NNE 01:44:17 21° NNE visible
24 Feb 3.5 03:22:35 10° N 03:25:21 25° NNW 03:25:21 25° NNW visible
25 Feb 4.6 01:17:34 10° NNE 01:18:55 17° NE 01:18:55 17° NE visible
25 Feb 3.4 02:57:09 10° N 02:59:58 30° N 02:59:58 30° N visible
25 Feb 4.1 04:39:26 10° NNW 04:40:48 11° NW 04:41:00 11° NW visible
26 Feb 4.9 00:52:54 10° NE 00:53:32 12° NE 00:53:32 12° NE visible
26 Feb 3.5 02:31:50 10° NNE 02:34:35 32° N 02:34:35 32° N visible
26 Feb 3.8 04:12:57 10° NNW 04:15:38 16° NW 04:15:38 16° NW visible
27 Feb 3.7 02:06:37 10° NNE 02:09:13 30° NNE 02:09:13 30° NNE visible
27 Feb 3.6 03:47:10 10° N 03:50:15 22° NW 03:50:15 22° NW visible
28 Feb 4.1 01:41:32 10° NNE 01:43:50 25° NE 01:43:50 25° NE visible
28 Feb 3.3 03:21:37 10° N 03:24:53 28° NNW 03:24:53 28° NNW visible
